Weather History for Versailles, OH

Change the Weather History Date:

Sunday, September 8, 2013

  Actual Average (KDAY) Record (KDAY)
Temperature  
Mean Temperature 72 °F 68 °F  
Max Temperature 84 °F 79 °F 98 °F (1900)
Min Temperature 60 °F 58 °F 42 °F (1898)
Degree Days  
Heating Degree Days 0 1  
Month to date heating degree days 8  
Since 1 July heating degree days 10  
Cooling Degree Days 7 5  
Month to date cooling degree days 43  
Year to date cooling degree days 825  
Growing Degree Days 22 (Base 50)    
Moisture  
Dew Point 64 °F    
Average Humidity 78    
Maximum Humidity 100    
Minimum Humidity 48    
Precipitation  
Precipitation 0.00 in 0.11 in 0.92 in (2007)
Month to date precipitation 0.91  
Year to date precipitation 29.22  
Snow  
Snow 0.00 in 0.00 in 0.00 in ()
Month to date snowfall 0.0  
Since 1 July snowfall 0.0  
Since 1 September snowfall 0.0  
Snow Depth -    
Sea Level Pressure  
Sea Level Pressure 30.00 in    
Wind  
Wind Speed 4 mph (ENE)    
Max Wind Speed 13 mph    
Max Gust Speed 21 mph    
Visibility 8 miles    
Events Rain    
T = Trace of Precipitation, MM = Missing Value Source: NWS Daily Summary

Daily Weather History Graph

Daily Weather History Graph

Search for Another Location

Airport:

Trip Planner

Search our weather history database for the weather conditions in past years. The results will help you decide how hot, cold, wet, or windy it might be!

Date:

Astronomy

Sep. 08, 2013 Rise Set
Actual Time 7:12 AM EDT 7:58 PM EDT
Civil Twilight 6:45 AM EDT 8:25 PM EDT
Nautical Twilight 6:12 AM EDT 8:58 PM EDT
Astronomical Twilight 5:38 AM EDT 9:31 PM EDT
Moon 10:29 AM EDT (9/8) 9:32 PM EDT (9/8)
Length of Visible Light 13h 40m
Length of Day
12h 45m
Waxing Crescent, 11% of the Moon is Illuminated
Sep 8
Waxing Crescent
Sep 12
First Quarter
Sep 19
Full
Sep 26
Last Quarter
Oct 4
New

Hourly Weather History & Observations

Time (EDT) Temp. Heat Index Dew Point Humidity Pressure Visibility Wind Dir Wind Speed Gust Speed Precip Events Conditions
12:15 AM 69.8 °F - 64.4 °F 83% 29.99 in 10.0 mi West 6.9 mph - N/A   Mostly Cloudy
12:35 AM 69.8 °F - 66.2 °F 88% 29.98 in 10.0 mi West 5.8 mph - N/A   Overcast
12:55 AM 69.8 °F - 66.2 °F 88% 29.98 in 10.0 mi West 3.5 mph - N/A   Overcast
1:15 AM 69.8 °F - 66.2 °F 88% 29.98 in 10.0 mi Calm Calm - N/A   Overcast
1:35 AM 69.8 °F - 68.0 °F 94% 29.99 in 10.0 mi Calm Calm - N/A Rain Light Rain
1:55 AM 69.8 °F - 68.0 °F 94% 29.99 in 10.0 mi Calm Calm - N/A   Overcast
2:15 AM 68.0 °F - 68.0 °F 100% 29.98 in 10.0 mi Calm Calm - N/A   Overcast
2:35 AM 68.0 °F - 68.0 °F 100% 29.97 in 7.0 mi SW 3.5 mph - N/A   Overcast
2:55 AM 66.2 °F - 66.2 °F 100% 29.98 in 7.0 mi WSW 3.5 mph - N/A   Mostly Cloudy
3:15 AM 64.4 °F - 64.4 °F 100% 29.97 in 7.0 mi WSW 4.6 mph - N/A   Scattered Clouds
3:35 AM 64.4 °F - 64.4 °F 100% 29.97 in 7.0 mi Calm Calm - N/A   Clear
3:55 AM 66.2 °F - 64.4 °F 94% 29.97 in 7.0 mi Calm Calm - N/A   Clear
4:15 AM 64.4 °F - 64.4 °F 100% 29.97 in 7.0 mi Calm Calm - N/A   Clear
4:35 AM 64.4 °F - 64.4 °F 100% 29.97 in 4.0 mi West 3.5 mph - N/A   Clear
4:55 AM 64.4 °F - 64.4 °F 100% 29.97 in 4.0 mi Calm Calm - N/A   Clear
5:15 AM 64.4 °F - 64.4 °F 100% 29.97 in 7.0 mi Calm Calm - N/A   Clear
5:35 AM 62.6 °F - 62.6 °F 100% 29.97 in 4.0 mi Calm Calm - N/A   Clear
5:55 AM 62.6 °F - 62.6 °F 100% 29.97 in 4.0 mi Calm Calm - N/A   Clear
6:15 AM 62.6 °F - 62.6 °F 100% 29.98 in 4.0 mi Calm Calm - N/A   Clear
6:35 AM 62.6 °F - 62.6 °F 100% 29.98 in 4.0 mi ENE 3.5 mph - N/A   Scattered Clouds
6:55 AM 62.6 °F - 62.6 °F 100% 29.99 in 3.0 mi Calm Calm - N/A   Clear
7:15 AM 60.8 °F - 60.8 °F 100% 30.00 in 2.0 mi Calm Calm - N/A   Clear
7:35 AM 60.8 °F - 60.8 °F 100% 30.00 in 3.0 mi Calm Calm - N/A   Clear
7:55 AM 60.8 °F - 60.8 °F 100% 30.01 in 1.2 mi Calm Calm - N/A   Mist
8:15 AM 62.6 °F - 62.6 °F 100% 30.01 in 1.5 mi Calm Calm - N/A   Mist
8:35 AM 64.4 °F - 64.4 °F 100% 30.01 in 2.5 mi Calm Calm - N/A   Clear
8:55 AM 68.0 °F - 68.0 °F 100% 30.01 in 4.0 mi Calm Calm - N/A   Clear
9:15 AM 71.6 °F - 66.2 °F 83% 30.01 in 7.0 mi North 4.6 mph - N/A   Clear
9:35 AM 73.4 °F - 66.2 °F 78% 30.01 in 10.0 mi ENE 3.5 mph - N/A   Clear
9:55 AM 73.4 °F - 64.4 °F 73% 30.01 in 10.0 mi East 4.6 mph - N/A   Clear
10:15 AM 77.0 °F - 64.4 °F 65% 30.02 in 10.0 mi ENE 4.6 mph - N/A   Clear
10:35 AM 77.0 °F - 64.4 °F 65% 30.02 in 10.0 mi ENE 4.6 mph - N/A   Clear
10:55 AM 78.8 °F - 64.4 °F 61% 30.02 in 10.0 mi East 8.1 mph - N/A   Clear
11:15 AM 78.8 °F - 64.4 °F 61% 30.02 in 10.0 mi ENE 5.8 mph - N/A   Clear
11:35 AM 78.8 °F - 64.4 °F 61% 30.02 in 10.0 mi East 5.8 mph - N/A   Clear
11:55 AM 80.6 °F 81.8 °F 62.6 °F 54% 30.02 in 10.0 mi Calm Calm - N/A   Clear
12:15 PM 82.4 °F 83.4 °F 62.6 °F 51% 30.01 in 7.0 mi ESE 3.5 mph - N/A   Clear
12:35 PM 82.4 °F 83.4 °F 62.6 °F 51% 30.02 in 7.0 mi East 4.6 mph - N/A   Clear
12:55 PM 84.2 °F 85.0 °F 62.6 °F 48% 30.02 in 7.0 mi NNE 5.8 mph - N/A   Scattered Clouds
1:15 PM 82.4 °F 83.4 °F 62.6 °F 51% 30.01 in 10.0 mi NNE 8.1 mph - N/A   Overcast
1:35 PM 82.4 °F 83.4 °F 62.6 °F 51% 30.01 in 7.0 mi East 8.1 mph - N/A   Mostly Cloudy
1:55 PM 82.4 °F 83.4 °F 62.6 °F 51% 30.02 in 10.0 mi NE 6.9 mph - N/A   Mostly Cloudy
2:15 PM 82.4 °F 83.4 °F 62.6 °F 51% 30.01 in 10.0 mi East 6.9 mph - N/A   Mostly Cloudy
2:35 PM 82.4 °F 83.9 °F 64.4 °F 54% 30.01 in 10.0 mi NNE 10.4 mph - N/A   Overcast
2:55 PM 80.6 °F 82.3 °F 64.4 °F 58% 30.01 in 7.0 mi NE 12.7 mph 16.1 mph N/A   Overcast
3:15 PM 78.8 °F - 64.4 °F 61% 30.00 in 7.0 mi NE 12.7 mph 16.1 mph N/A   Mostly Cloudy
3:35 PM 82.4 °F 83.9 °F 64.4 °F 54% 30.01 in 10.0 mi ENE 8.1 mph - N/A   Scattered Clouds
3:55 PM 82.4 °F 83.9 °F 64.4 °F 54% 30.00 in 7.0 mi NE 9.2 mph 17.3 mph N/A   Scattered Clouds
4:15 PM 80.6 °F 82.3 °F 64.4 °F 58% 30.00 in 7.0 mi NE 8.1 mph - N/A   Scattered Clouds
4:35 PM 80.6 °F 82.3 °F 64.4 °F 58% 30.00 in 10.0 mi NE 10.4 mph - N/A   Scattered Clouds
4:55 PM 80.6 °F 82.3 °F 64.4 °F 58% 30.00 in 10.0 mi East 9.2 mph 20.7 mph N/A   Mostly Cloudy
5:15 PM 80.6 °F 82.3 °F 64.4 °F 58% 30.00 in 10.0 mi ENE 10.4 mph 18.4 mph N/A   Scattered Clouds
5:35 PM 78.8 °F - 64.4 °F 61% 30.00 in 10.0 mi ENE 11.5 mph 17.3 mph N/A   Scattered Clouds
5:55 PM 77.0 °F - 64.4 °F 65% 29.99 in 10.0 mi NE 9.2 mph - N/A   Clear
6:15 PM 77.0 °F - 64.4 °F 65% 30.00 in 10.0 mi NE 9.2 mph - N/A   Clear
6:35 PM 77.0 °F - 62.6 °F 61% 30.00 in 10.0 mi NE 10.4 mph - N/A   Clear
6:55 PM 75.2 °F - 62.6 °F 65% 30.00 in 10.0 mi NE 8.1 mph - N/A   Clear
7:15 PM 75.2 °F - 64.4 °F 69% 30.00 in 10.0 mi ENE 5.8 mph - N/A   Clear
7:35 PM 73.4 °F - 64.4 °F 73% 30.01 in 10.0 mi East 5.8 mph - N/A   Clear
7:55 PM 73.4 °F - 64.4 °F 73% 30.01 in 10.0 mi ENE 5.8 mph - N/A   Clear
8:15 PM 71.6 °F - 64.4 °F 78% 30.02 in 10.0 mi ENE 5.8 mph - N/A   Clear
8:35 PM 71.6 °F - 64.4 °F 78% 30.02 in 10.0 mi ENE 3.5 mph - N/A   Clear
8:55 PM 69.8 °F - 64.4 °F 83% 30.02 in 10.0 mi ENE 4.6 mph - N/A   Clear
9:15 PM 69.8 °F - 64.4 °F 83% 30.03 in 10.0 mi ENE 4.6 mph - N/A   Scattered Clouds
9:35 PM 69.8 °F - 64.4 °F 83% 30.03 in 10.0 mi ENE 4.6 mph - N/A   Mostly Cloudy
9:55 PM 69.8 °F - 64.4 °F 83% 30.04 in 10.0 mi East 5.8 mph - N/A   Overcast
10:15 PM 68.0 °F - 64.4 °F 88% 30.04 in 10.0 mi East 5.8 mph - N/A   Mostly Cloudy
10:35 PM 68.0 °F - 64.4 °F 88% 30.03 in 10.0 mi Calm Calm - N/A   Mostly Cloudy
10:55 PM 68.0 °F - 62.6 °F 83% 30.04 in 10.0 mi East 3.5 mph - N/A   Overcast
11:15 PM 66.2 °F - 62.6 °F 88% 30.04 in 10.0 mi East 3.5 mph - N/A   Scattered Clouds
11:35 PM 64.4 °F - 62.6 °F 94% 30.04 in 10.0 mi East 4.6 mph - N/A   Clear
11:55 PM 64.4 °F - 62.6 °F 94% 30.04 in 10.0 mi East 4.6 mph - N/A   Scattered Clouds